Station: Cape Wessel  

  Atmospheric Gas Attenuation - ITU Rec 676-11   ----------------- dB/100km -----------------
Date Time Temp RH % AH g/m3 Dew Point Wind Direction Speed kph Gust kph Barometer mB Rainfall Since 9am 24GHz 47GHz 76GHz 122GHz 134GHz 241GHz
10/05 21:30 27.7 83 22.2 24.5 35 43 1012.7 0 47.4 44.8 89.6 237.3 266.2 925.0
10/05 21:20 27.5 84 22.23 24.5 35 39 1012.6 0 47.5 45.0 90.0 238.3 267.4 929.1
10/05 21:10 27.5 84 22.23 24.5 33 39 1012.6 0 47.5 45.0 90.0 238.3 267.4 929.1
10/05 21:00 27.5 84 22.23 24.6 35 44 1012.6 0 47.5 45.0 90.0 238.3 267.4 929.1
10/05 20:50 27.5 84 22.23 24.5 37 43 1012.5 0 47.5 45.0 90.0 238.3 267.4 929.1
10/05 20:40 27.6 84 22.35 24.6 33 37 1012.5 0 47.8 45.2 90.5 239.5 268.9 934.5
10/05 20:30 27.6 83 22.08 24.4 35 43 1012.4 0 47.2 44.6 89.1 236.0 264.6 919.4
10/05 20:20 27.6 84 22.35 24.6 32 35 1012.4 0 47.8 45.2 90.5 239.5 268.9 934.5
10/05 20:10 27.6 84 22.35 24.6 32 37 1012.2 0 47.8 45.2 90.4 239.5 268.9 934.4
10/05 20:00 27.5 85 22.49 24.7 32 39 1012 0 48.1 45.5 91.3 241.6 271.5 943.3
10/05 19:50 27.6 84 22.35 24.6 32 35 1012 0 47.8 45.2 90.4 239.5 268.8 934.2
10/05 19:40 27.5 83 21.96 24.3 35 39 1011.9 0 47.0 44.4 88.6 234.6 262.9 913.6
10/05 19:30 27.7 82 21.94 24.3 35 41 1011.6 0 46.9 44.3 88.3 233.7 261.8 909.9
10/05 19:20 27.6 84 22.35 24.6 35 39 1011.5 0 47.8 45.1 90.4 239.4 268.7 933.9
10/05 19:10 27.6 83 22.08 24.4 35 41 1011.4 0 47.2 44.6 89.1 235.8 264.4 918.8
10/05 19:00 27.7 83 22.2 24.5 35 44 1011.3 0 47.5 44.8 89.5 237.0 265.9 924.2
10/05 18:50 27.7 85 22.74 24.9 32 35 1011.1 0 48.6 45.8 92.2 244.1 274.6 954.3
10/05 18:40 27.7 83 22.2 24.5 35 43 1010.9 0 47.5 44.8 89.5 237.0 265.9 923.9
10/05 18:30 27.7 83 22.2 24.5 35 44 1010.6 0 47.5 44.7 89.5 236.9 265.8 923.8
10/05 18:20 27.7 82 21.94 24.3 35 41 1010.6 0 46.9 44.2 88.2 233.5 261.7 909.3
10/05 18:10 27.7 83 22.2 24.5 35 41 1010.4 0 47.5 44.7 89.5 236.9 265.8 923.6
10/05 18:00 27.7 83 22.2 24.5 37 46 1010.4 0 47.5 44.7 89.5 236.9 265.8 923.6
10/05 17:50 27.8 82 22.06 24.4 39 46 1010.4 0 47.2 44.4 88.7 234.8 263.2 914.6
10/05 17:40 27.9 82 22.18 24.5 37 43 1010.4 0 47.4 44.6 89.1 236.0 264.7 920.1
10/05 17:30 28 80 21.76 24.2 39 50 1010.2 0 46.5 43.7 86.9 230.2 257.7 895.6
10/05 17:20 28.2 81 22.27 24.6 35 44 1010 0 47.6 44.6 89.2 236.2 265.0 921.1
10/05 17:10 28 82 22.3 24.6 39 46 1009.9 0 47.6 44.7 89.6 237.2 266.2 925.2
10/05 17:00 28.3 79 21.84 24.3 43 52 1009.8 0 46.6 43.7 87.0 230.3 257.8 896.1
10/05 16:50 28.4 81 22.52 24.8 43 48 1009.7 0 48.1 45.0 90.1 238.7 268.3 932.3
10/05 16:40 28.5 81 22.64 24.9 37 44 1009.7 0 48.3 45.1 90.6 240.0 269.8 937.8
10/05 16:30 28.2 81 22.27 24.6 39 48 1009.7 0 47.6 44.6 89.2 236.1 265.0 921.0
10/05 16:20 28.4 80 22.24 24.6 41 46 1009.6 0 47.5 44.4 88.8 235.1 263.8 916.8
10/05 16:10 28.8 79 22.45 24.8 37 43 1009.5 0 47.9 44.6 89.3 236.5 265.7 923.4
10/05 16:00 29 78 22.41 24.8 37 48 1009.4 0 47.8 44.4 88.9 235.4 264.3 918.7
10/05 15:50 29.3 77 22.48 24.8 39 44 1009.5 0 47.9 44.4 88.9 235.3 264.4 918.9
10/05 15:40 29 79 22.69 25 35 44 1009.5 0 48.3 44.9 90.2 239.0 268.8 934.2
10/05 15:30 28.9 78 22.29 24.7 41 48 1009.4 0 47.5 44.2 88.4 234.1 262.8 913.3
10/05 15:20 28.9 80 22.86 25.1 41 48 1009.4 0 48.7 45.3 91.2 241.5 271.8 944.8
10/05 15:10 28.4 80 22.24 24.6 43 48 1009.4 0 47.5 44.4 88.8 235.0 263.7 916.7
10/05 15:00 28.6 79 22.2 24.6 39 48 1009.5 0 47.4 44.2 88.3 233.9 262.4 912.1
10/05 14:50 28.6 79 22.2 24.6 33 39 1009.6 0 47.4 44.2 88.3 233.9 262.4 912.1
10/05 14:40 28.8 81 23.02 25.2 30 39 1009.6 0 49.1 45.7 92.1 244.0 274.8 955.1
10/05 14:30 29.3 78 22.78 25.1 37 48 1009.7 0 48.5 45.0 90.3 239.2 269.1 935.5
10/05 14:20 29.5 75 22.14 24.6 43 48 1009.6 0 47.1 43.6 87.0 230.4 258.3 898.0
10/05 14:10 29.8 74 22.2 24.7 41 44 1009.7 0 47.2 43.6 86.9 230.3 258.3 897.8
10/05 14:00 29.4 80 23.49 25.6 37 48 1009.8 0 50.0 46.3 93.7 248.2 280.1 973.7
10/05 13:50 30.5 73 22.75 25.1 39 43 1009.8 0 48.3 44.3 88.8 235.1 264.4 919.1
10/05 13:40 30.6 74 23.18 25.4 35 41 1009.9 0 49.2 45.0 90.7 240.3 270.8 941.3
10/05 13:30 29.7 78 23.28 25.4 39 52 1010 0 49.5 45.7 92.3 244.5 275.7 958.3
10/05 13:20 29.5 76 22.43 24.8 39 44 1010.2 0 47.7 44.2 88.4 234.2 263.0 914.2
10/05 13:10 29.4 79 23.19 25.4 41 44 1010.3 0 49.3 45.7 92.3 244.3 275.4 957.3
10/05 13:00 29.7 76 22.68 25 41 54 1010.3 0 48.2 44.6 89.4 236.8 266.2 925.4
10/05 12:50 29.5 76 22.43 24.8 46 50 1010.5 0 47.7 44.2 88.5 234.2 263.0 914.3
10/05 12:40 29.5 79 23.32 25.5 37 46 1010.6 0 49.6 46.0 92.8 245.8 277.2 963.4
10/05 12:30 29.6 75 22.26 24.7 46 57 1010.8 0 47.4 43.8 87.5 231.8 260.1 904.1
10/05 12:20 29.3 78 22.78 25.1 46 52 1010.9 0 48.5 45.0 90.4 239.4 269.3 936.2
10/05 12:10 28.9 79 22.57 24.9 43 52 1011.2 0 48.1 44.8 89.9 238.0 267.5 929.8
10/05 12:00 29.8 76 22.8 25.1 43 52 1011.3 0 48.5 44.8 89.9 238.2 267.9 931.4
10/05 11:50 29.4 78 22.9 25.2 35 43 1011.3 0 48.7 45.2 90.9 240.8 271.0 941.9
10/05 11:40 29.4 76 22.31 24.7 44 50 1011.4 0 47.5 44.1 88.1 233.2 261.7 909.6
10/05 11:30 29.7 76 22.68 25 41 54 1011.5 0 48.2 44.6 89.5 237.0 266.4 926.2
10/05 11:20 30.1 77 23.48 25.6 39 44 1011.6 0 49.9 46.0 92.9 246.1 277.7 965.2
10/05 11:10 30.1 75 22.87 25.2 50 56 1011.8 0 48.6 44.8 90.0 238.2 268.0 931.8
10/05 11:00 29.9 78 23.53 25.6 43 56 1012.1 0 50.0 46.2 93.4 247.5 279.3 970.9
10/05 10:50 29 80 22.98 25.2 39 46 1012.2 0 48.9 45.6 91.9 243.2 273.9 951.9
10/05 10:40 28.6 78 21.92 24.4 50 54 1012.1 0 46.7 43.8 87.2 230.8 258.4 898.3
10/05 10:30 29.8 77 23.1 25.3 48 63 1012 0 49.1 45.4 91.4 242.2 272.8 948.3
10/05 10:20 29 77 22.12 24.6 50 57 1012 0 47.1 43.9 87.6 232.1 260.2 904.4
10/05 10:10 28.6 81 22.77 25 48 54 1012.1 0 48.5 45.4 91.3 241.8 272.0 945.2
10/05 10:00 29.1 81 23.4 25.5 46 56 1012 0 49.8 46.4 93.8 248.4 280.2 974.0
10/05 09:50 28.5 85 23.76 25.7 44 52 1011.9 0 50.7 47.5 96.3 255.2 288.4 1002.2
10/05 09:40 28.4 84 23.35 25.4 41 48 1011.9 0 49.8 46.7 94.4 250.0 282.0 980.2
10/05 09:30 29.2 80 23.23 25.4 39 54 1011.9 0 49.4 46.0 92.8 245.8 277.1 963.1
10/05 09:20 28.8 81 23.02 25.2 46 50 1011.8 0 49.1 45.8 92.3 244.3 275.2 956.4
10/05 09:10 28.8 84 23.87 25.8 43 48 1011.7 0 50.9 47.5 96.5 255.6 289.0 1004.3
10/05 09:00 28.5 84 23.48 25.5 44 56 1011.6 0 50.1 46.9 94.9 251.4 283.7 986.1
10/05 08:50 28.7 84 23.74 25.7 39 44 1011.5 98.2 50.6 47.3 96.0 254.2 287.2 998.1
10/05 08:40 27.8 87 23.4 25.4 43 50 1011.3 98.2 50.0 47.1 95.4 252.6 285.1 990.6
10/05 08:30 27 87 22.39 24.6 44 61 1011.2 98.2 48.0 45.5 91.3 241.8 271.5 943.5
10/05 08:20 27.6 89 23.68 25.6 41 46 1011 98.2 50.6 47.8 97.1 257.0 290.4 1009.2
10/05 08:10 27.2 89 23.16 25.2 37 44 1010.9 98.2 49.6 47.0 94.9 251.4 283.4 984.6
10/05 08:00 27 91 23.42 25.4 37 44 1011 98.2 50.1 47.6 96.5 255.6 288.5 1002.3
10/05 07:50 26.8 92 23.42 25.4 43 46 1011 98.2 50.2 47.7 96.8 256.3 289.3 1005.0
10/05 07:40 26.3 94 23.27 25.3 39 44 1011.1 98.2 49.9 47.7 96.7 256.0 288.7 1003.1
10/05 07:30 26.5 96 24.03 25.8 35 44 1011 98.2 51.5 49.2 100.3 265.7 300.8 1044.9
10/05 07:20 26.1 95 23.26 25.2 35 43 1010.8 98 49.9 47.8 96.8 256.5 289.3 1005.1
10/05 07:10 26 94 22.88 25 39 48 1010.9 97.6 49.1 47.1 95.0 251.6 283.3 984.4
10/05 07:00 27.1 91 23.55 25.5 37 44 1010.6 95.8 50.4 47.8 97.0 256.9 290.2 1008.2
10/05 06:50 26.8 91 23.16 25.2 35 44 1010.4 95.8 49.6 47.2 95.4 252.6 284.8 989.6
10/05 06:40 26.6 93 23.41 25.4 35 43 1010.6 95.8 50.2 47.8 96.9 256.7 289.8 1006.9
10/05 06:30 26.7 93 23.54 25.5 35 46 1010.2 95.8 50.5 48.0 97.5 258.1 291.5 1012.8
10/05 06:20 26.6 93 23.41 25.4 35 41 1010 95.8 50.2 47.8 96.9 256.6 289.7 1006.5
10/05 06:10 26.6 93 23.41 25.4 32 39 1009.8 95.8 50.2 47.8 96.9 256.6 289.7 1006.4
10/05 06:00 26.5 94 23.53 25.5 35 44 1009.5 95.8 50.5 48.1 97.6 258.5 292.0 1014.5
10/05 05:50 26.4 93 23.15 25.2 35 39 1009.6 95.8 49.7 47.3 95.8 253.7 286.1 993.9
10/05 05:40 26.3 93 23.02 25.1 37 41 1009.7 95.8 49.4 47.1 95.3 252.3 284.3 987.7
10/05 05:30 26.1 94 23.01 25.1 37 44 1009.6 95.8 49.4 47.2 95.5 252.8 284.9 989.7
10/05 05:20 25.8 94 22.63 24.8 32 35 1009.7 95.8 48.6 46.6 93.9 248.7 279.7 971.8
10/05 05:10 25.7 94 22.5 24.7 39 46 1009.9 95.8 48.4 46.4 93.4 247.3 278.0 965.7
10/05 05:00 26.2 95 23.39 25.3 32 50 1009.8 95.6 50.2 48.0 97.3 257.7 290.9 1010.7

Last Refresh: 10-May-2026 21:42:58

Bureau of Meteorology